QPF
0.03 0.04 0.10 0.18 0.08 0.05 0.04 0.05 0.06 0.07 0.06 0.04 0.04 0.04 0.04 0.04 0.05 0.07 0.06 0.06 0.05 0.04 0.05 0.05 0.04 0.03 0.03 0.03 0.03 0.02 0.03 0.03 0.02 0.02 0.02 0.02 0.03 0.03 0.02 0.03 0.03 0.03 0.03
0.03 0.03 0.05 0.07 0.06 0.06 0.05 0.06 0.07 0.08 0.06 0.04 0.04 0.05 0.07 0.05 0.04 0.04 0.05 0.07 0.06 0.05 0.05 0.04 0.04 0.03 0.03 0.02 0.02 0.01 0.02 0.02 0.02 0.02 0.01 0.02 0.03 0.03 0.02 0.02 0.02 0.03 0.03
0.02 0.02 0.02 0.04 0.07 0.11 0.08 0.07 0.05 0.07 0.10 0.08 0.06 0.07 0.07 0.06 0.05 0.06 0.07 0.09 0.07 0.05 0.04 0.03 0.03 0.02 0.02 0.02 0.02 0.02 0.01 0.01 0.02 0.01 0.02 0.02 0.03 0.02 0.02 0.02 0.02 0.02 0.02
0.02 0.02 0.02 0.03 0.04 0.05 0.06 0.06 0.05 0.06 0.08 0.09 0.07 0.06 0.06 0.06 0.05 0.07 0.09 0.09 0.07 0.06 0.05 0.04 0.04 0.03 0.02 0.02 0.02 0.02 0.02 0.02 0.02 0.02 0.02 0.03 0.04 0.03 0.02 0.02 0.02 0.03 0.02
0.02 0.01 0.02 0.02 0.02 0.03 0.04 0.06 0.05 0.08 0.06 0.06 0.08 0.07 0.05 0.06 0.07 0.07 0.08 0.09 0.07 0.05 0.04 0.05 0.05 0.03 0.02 0.02 0.02 0.02 0.02 0.03 0.04 0.03 0.04 0.04 0.04 0.03 0.02 0.01 0.02 0.02 0.02
0.01 0.01 0.02 0.03 0.03 0.04 0.05 0.05 0.05 0.05 0.05 0.06 0.06 0.07 0.05 0.06 0.07 0.06 0.06 0.06 0.04 0.04 0.05 0.05 0.03 0.03 0.02 0.01 0.02 0.03 0.04 0.04 0.04 0.04 0.04 0.04 0.03 0.02 0.02 0.01 0.01 0.02 0.02
0.01 0.01 0.01 0.03 0.05 0.06 0.06 0.07 0.07 0.06 0.06 0.07 0.06 0.06 0.06 0.08 0.09 0.07 0.07 0.05 0.04 0.03 0.03 0.04 0.03 0.03 0.02 0.02 0.03 0.04 0.04 0.04 0.04 0.04 0.04 0.04 0.03 0.03 0.01 0.01 0.01 0.01 0.01
0.01 0.00 0.01 0.02 0.03 0.06 0.07 0.09 0.09 0.07 0.07 0.06 0.05 0.06 0.07 0.09 0.09 0.08 0.06 0.04 0.02 0.02 0.02 0.04 0.05 0.03 0.02 0.01 0.01 0.01 0.02 0.04 0.04 0.04 0.04 0.03 0.02 0.01 0.01 0.00 0.01 0.01 0.00
0.01 0.02 0.03 0.03 0.03 0.03 0.04 0.07 0.10 0.08 0.07 0.06 0.05 0.08 0.10 0.12 0.11 0.07 0.04 0.02 0.01 0.01 0.01 0.03 0.04 0.03 0.01 0.01 0.01 0.01 0.01 0.02 0.02 0.02 0.02 0.02 0.01 0.01 0.01 0.01 0.01 0.01 0.00
0.02 0.03 0.04 0.03 0.03 0.03 0.02 0.04 0.07 0.08 0.07 0.08 0.07 0.08 0.09 0.11 0.09 0.05 0.03 0.02 0.01 0.01 0.01 0.01 0.03 0.03 0.03 0.03 0.02 0.02 0.02 0.02 0.02 0.01 0.01 0.02 0.01 0.01 0.01 0.01 0.01 0.01 0.01
0.02 0.02 0.03 0.04 0.04 0.03 0.03 0.03 0.04 0.05 0.06 0.07 0.08 0.06 0.08 0.07 0.06 0.06 0.04 0.02 0.01 0.01 0.01 0.01 0.01 0.01 0.02 0.03 0.03 0.02 0.02 0.02 0.01 0.01 0.01 0.01 0.01 0.01 0.01 0.01 0.01 0.01 0.01
0.02 0.02 0.02 0.03 0.03 0.03 0.03 0.02 0.02 0.03 0.04 0.05 0.05 0.05 0.06 0.05 0.03 0.03 0.04 0.03 0.02 0.01 0.01 0.02 0.02 0.02 0.02 0.02 0.03 0.03 0.02 0.01 0.01 0.01 0.01 0.01 0.01 0.01 0.01 0.01 0.01 0.00 0.01
0.03 0.02 0.02 0.02 0.02 0.02 0.02 0.01 0.02 0.02 0.03 0.05 0.05 0.04 0.03 0.03 0.02 0.01 0.01 0.01 0.02 0.02 0.01 0.02 0.03 0.03 0.03 0.03 0.04 0.04 0.03 0.02 0.01 0.01 0.01 0.02 0.01 0.01 0.01 0.00 0.00 0.00 0.00
0.02 0.02 0.02 0.02 0.02 0.01 0.01 0.01 0.02 0.02 0.02 0.03 0.03 0.02 0.01 0.02 0.02 0.01 0.00 0.00 0.01 0.01 0.02 0.01 0.02 0.03 0.03 0.03 0.03 0.03 0.04 0.03 0.01 0.01 0.01 0.02 0.01 0.01 0.01 0.01 0.01 0.00 0.01
0.02 0.02 0.02 0.02 0.02 0.02 0.01 0.01 0.02 0.01 0.01 0.01 0.02 0.02 0.01 0.01 0.01 0.01 0.01 0.00 0.00 0.00 0.01 0.01 0.02 0.03 0.03 0.04 0.03 0.02 0.03 0.02 0.01 0.02 0.01 0.01 0.01 0.01 0.01 0.00 0.01 0.00 0.01
0.02 0.01 0.01 0.01 0.02 0.02 0.02 0.01 0.01 0.01 0.01 0.01 0.02 0.01 0.01 0.01 0.01 0.02 0.02 0.00 0.00 0.00 0.01 0.03 0.02 0.02 0.02 0.03 0.03 0.02 0.01 0.01 0.01 0.01 0.01 0.01 0.01 0.01 0.01 0.01 0.00 0.00 0.00
0.02 0.01 0.01 0.01 0.01 0.02 0.03 0.03 0.02 0.02 0.01 0.02 0.01 0.01 0.01 0.01 0.01 0.01 0.01 0.00 0.00 0.00 0.01 0.02 0.02 0.02 0.02 0.02 0.03 0.03 0.02 0.01 0.01 0.01 0.01 0.01 0.01 0.01 0.01 0.01 0.01 0.01 0.01
0.01 0.01 0.01 0.01 0.01 0.01 0.02 0.03 0.03 0.02 0.02 0.02 0.01 0.01 0.00 0.01 0.01 0.01 0.01 0.01 0.01 0.01 0.01 0.01 0.02 0.02 0.01 0.03 0.03 0.03 0.02 0.01 0.01 0.01 0.01 0.02 0.02 0.02 0.04 0.03 0.02 0.01 0.01
0.02 0.02 0.02 0.02 0.01 0.01 0.01 0.02 0.03 0.03 0.02 0.01 0.01 0.01 0.01 0.01 0.01 0.01 0.01 0.01 0.02 0.02 0.02 0.02 0.02 0.01 0.01 0.02 0.03 0.02 0.02 0.01 0.01 0.01 0.02 0.02 0.03 0.04 0.08 0.06 0.04 0.04 0.03
0.02 0.02 0.03 0.03 0.02 0.01 0.01 0.01 0.02 0.02 0.02 0.02 0.02 0.02 0.03 0.02 0.02 0.01 0.01 0.01 0.01 0.02 0.03 0.02 0.02 0.01 0.01 0.02 0.02 0.02 0.01 0.01 0.01 0.02 0.02 0.02 0.02 0.03 0.04 0.03 0.03 0.03 0.04
0.02 0.03 0.03 0.04 0.02 0.01 0.01 0.01 0.01 0.01 0.01 0.02 0.02 0.03 0.04 0.04 0.03 0.02 0.02 0.02 0.01 0.01 0.03 0.02 0.01 0.01 0.01 0.03 0.03 0.02 0.02 0.02 0.02 0.02 0.01 0.01 0.01 0.01 0.02 0.01 0.01 0.01 0.01
0.02 0.02 0.04 0.04 0.03 0.02 0.02 0.01 0.01 0.01 0.02 0.03 0.03 0.04 0.04 0.04 0.05 0.04 0.03 0.02 0.02 0.02 0.02 0.03 0.02 0.02 0.02 0.02 0.02 0.03 0.02 0.03 0.02 0.02 0.01 0.01 0.01 0.01 0.01 0.01 0.00 0.01 0.01
0.02 0.03 0.03 0.03 0.03 0.03 0.02 0.02 0.02 0.02 0.01 0.02 0.03 0.04 0.05 0.07 0.06 0.05 0.04 0.03 0.03 0.02 0.03 0.03 0.03 0.03 0.02 0.02 0.03 0.03 0.03 0.03 0.03 0.02 0.02 0.02 0.01 0.01 0.01 0.01 0.01 0.01 0.01
0.01 0.02 0.02 0.03 0.04 0.04 0.03 0.02 0.02 0.02 0.01 0.01 0.01 0.02 0.04 0.07 0.08 0.06 0.04 0.03 0.03 0.03 0.03 0.03 0.03 0.04 0.03 0.02 0.02 0.02 0.02 0.02 0.02 0.01 0.01 0.01 0.01 0.01 0.01 0.01 0.01 0.01 0.01
0.01 0.01 0.02 0.02 0.02 0.02 0.02 0.01 0.01 0.01 0.01 0.01 0.01 0.03 0.02 0.03 0.03 0.04 0.03 0.03 0.03 0.03 0.04 0.04 0.04 0.05 0.04 0.03 0.02 0.02 0.02 0.02 0.01 0.01 0.01 0.01 0.00 0.01 0.00 0.01 0.02 0.02 0.01
0.02 0.02 0.02 0.02 0.02 0.02 0.02 0.01 0.01 0.01 0.01 0.01 0.01 0.02 0.03 0.03 0.02 0.02 0.02 0.02 0.02 0.03 0.02 0.03 0.03 0.04 0.04 0.04 0.03 0.02 0.03 0.02 0.01 0.01 0.00 0.01 0.01 0.01 0.01 0.01 0.02 0.03 0.02
MSLP
1012.86 1013.16 1013.40 1013.55 1013.60 1013.58 1013.52 1013.47 1013.44 1013.45 1013.48 1013.52 1013.54 1013.51 1013.41 1013.26 1013.05 1012.83 1012.61 1012.43 1012.30 1012.22 1012.19 1012.18 1012.18 1012.18 1012.18 1012.19 1012.22 1012.30 1012.45 1012.67 1012.96 1013.30 1013.66 1014.01 1014.32 1014.55 1014.69 1014.74 1014.72 1014.65 1014.55
1012.55 1012.95 1013.26 1013.47 1013.55 1013.55 1013.49 1013.43 1013.39 1013.41 1013.46 1013.53 1013.59 1013.59 1013.52 1013.38 1013.18 1012.94 1012.70 1012.49 1012.32 1012.20 1012.12 1012.06 1012.00 1011.94 1011.88 1011.83 1011.82 1011.87 1012.02 1012.28 1012.64 1013.07 1013.55 1014.02 1014.44 1014.77 1014.98 1015.07 1015.05 1014.96 1014.83
1012.12 1012.61 1013.02 1013.30 1013.44 1013.46 1013.42 1013.36 1013.33 1013.35 1013.41 1013.50 1013.58 1013.62 1013.58 1013.46 1013.27 1013.04 1012.79 1012.56 1012.36 1012.20 1012.07 1011.96 1011.84 1011.71 1011.58 1011.46 1011.40 1011.43 1011.58 1011.87 1012.29 1012.82 1013.40 1013.98 1014.51 1014.92 1015.19 1015.32 1015.32 1015.22 1015.07
1011.60 1012.19 1012.69 1013.05 1013.26 1013.33 1013.31 1013.26 1013.22 1013.24 1013.30 1013.40 1013.49 1013.55 1013.53 1013.44 1013.27 1013.05 1012.81 1012.58 1012.37 1012.18 1012.02 1011.85 1011.68 1011.49 1011.30 1011.13 1011.02 1011.03 1011.18 1011.49 1011.96 1012.55 1013.21 1013.88 1014.48 1014.97 1015.29 1015.45 1015.47 1015.38 1015.23
1011.06 1011.73 1012.32 1012.77 1013.05 1013.16 1013.17 1013.12 1013.08 1013.07 1013.12 1013.20 1013.29 1013.35 1013.35 1013.28 1013.13 1012.93 1012.71 1012.49 1012.28 1012.09 1011.91 1011.72 1011.51 1011.28 1011.05 1010.84 1010.71 1010.69 1010.83 1011.16 1011.65 1012.28 1012.99 1013.70 1014.35 1014.88 1015.24 1015.44 1015.48 1015.42 1015.29
1010.58 1011.31 1011.97 1012.49 1012.82 1012.97 1013.00 1012.95 1012.89 1012.86 1012.87 1012.92 1012.99 1013.03 1013.03 1012.96 1012.83 1012.65 1012.45 1012.25 1012.06 1011.88 1011.70 1011.51 1011.30 1011.06 1010.81 1010.59 1010.45 1010.42 1010.55 1010.87 1011.36 1011.99 1012.71 1013.43 1014.10 1014.64 1015.03 1015.26 1015.34 1015.32 1015.24
1010.22 1010.99 1011.69 1012.25 1012.62 1012.79 1012.82 1012.76 1012.67 1012.61 1012.58 1012.59 1012.61 1012.62 1012.60 1012.52 1012.39 1012.23 1012.04 1011.86 1011.69 1011.54 1011.39 1011.22 1011.03 1010.81 1010.58 1010.37 1010.22 1010.19 1010.32 1010.62 1011.08 1011.69 1012.37 1013.07 1013.72 1014.27 1014.67 1014.93 1015.06 1015.10 1015.08
1010.02 1010.80 1011.51 1012.08 1012.46 1012.64 1012.66 1012.58 1012.47 1012.36 1012.28 1012.24 1012.21 1012.18 1012.12 1012.01 1011.87 1011.70 1011.52 1011.35 1011.21 1011.08 1010.96 1010.83 1010.68 1010.50 1010.31 1010.13 1010.01 1009.98 1010.10 1010.37 1010.80 1011.35 1011.99 1012.65 1013.27 1013.80 1014.21 1014.50 1014.69 1014.80 1014.87
1009.98 1010.74 1011.44 1011.99 1012.35 1012.52 1012.53 1012.43 1012.29 1012.15 1012.03 1011.94 1011.86 1011.77 1011.66 1011.52 1011.34 1011.15 1010.96 1010.79 1010.65 1010.55 1010.46 1010.38 1010.28 1010.15 1010.01 1009.88 1009.79 1009.78 1009.89 1010.13 1010.52 1011.01 1011.59 1012.19 1012.77 1013.29 1013.71 1014.04 1014.29 1014.48 1014.65
1010.07 1010.80 1011.45 1011.97 1012.29 1012.43 1012.43 1012.32 1012.16 1011.99 1011.85 1011.72 1011.60 1011.47 1011.30 1011.11 1010.88 1010.65 1010.43 1010.25 1010.11 1010.01 1009.95 1009.91 1009.86 1009.79 1009.71 1009.64 1009.58 1009.59 1009.70 1009.92 1010.26 1010.71 1011.23 1011.78 1012.32 1012.82 1013.26 1013.63 1013.94 1014.21 1014.46
1010.22 1010.90 1011.50 1011.96 1012.24 1012.36 1012.33 1012.22 1012.06 1011.90 1011.75 1011.61 1011.46 1011.29 1011.08 1010.84 1010.56 1010.28 1010.02 1009.80 1009.65 1009.55 1009.50 1009.49 1009.48 1009.47 1009.45 1009.43 1009.43 1009.46 1009.58 1009.78 1010.09 1010.49 1010.96 1011.47 1011.98 1012.47 1012.92 1013.33 1013.69 1014.03 1014.35
1010.35 1010.98 1011.52 1011.92 1012.16 1012.25 1012.22 1012.12 1011.98 1011.84 1011.71 1011.57 1011.42 1011.23 1010.99 1010.71 1010.39 1010.06 1009.76 1009.51 1009.33 1009.22 1009.18 1009.19 1009.22 1009.26 1009.29 1009.32 1009.36 1009.43 1009.55 1009.75 1010.04 1010.40 1010.83 1011.31 1011.80 1012.28 1012.74 1013.17 1013.57 1013.95 1014.32
1010.40 1010.98 1011.46 1011.81 1012.01 1012.08 1012.05 1011.98 1011.88 1011.78 1011.68 1011.57 1011.43 1011.25 1010.99 1010.69 1010.34 1009.98 1009.65 1009.37 1009.17 1009.05 1009.02 1009.04 1009.11 1009.19 1009.26 1009.34 1009.42 1009.52 1009.65 1009.85 1010.12 1010.46 1010.86 1011.31 1011.78 1012.25 1012.71 1013.14 1013.55 1013.95 1014.34
1010.32 1010.86 1011.29 1011.59 1011.76 1011.83 1011.82 1011.78 1011.73 1011.68 1011.63 1011.56 1011.45 1011.27 1011.03 1010.72 1010.36 1009.99 1009.65 1009.36 1009.16 1009.04 1009.02 1009.06 1009.15 1009.26 1009.38 1009.49 1009.60 1009.72 1009.87 1010.07 1010.33 1010.65 1011.03 1011.44 1011.89 1012.34 1012.78 1013.21 1013.61 1013.99 1014.37
1010.11 1010.60 1010.99 1011.26 1011.42 1011.49 1011.52 1011.52 1011.52 1011.52 1011.52 1011.49 1011.41 1011.26 1011.04 1010.75 1010.40 1010.05 1009.72 1009.45 1009.26 1009.16 1009.15 1009.22 1009.33 1009.46 1009.60 1009.74 1009.87 1010.01 1010.17 1010.37 1010.62 1010.91 1011.27 1011.65 1012.07 1012.49 1012.90 1013.30 1013.67 1014.03 1014.36
1009.77 1010.23 1010.59 1010.84 1011.01 1011.10 1011.16 1011.21 1011.26 1011.31 1011.35 1011.35 1011.30 1011.18 1010.99 1010.73 1010.42 1010.11 1009.82 1009.58 1009.43 1009.36 1009.37 1009.46 1009.59 1009.73 1009.89 1010.04 1010.18 1010.33 1010.49 1010.68 1010.91 1011.19 1011.51 1011.86 1012.24 1012.62 1013.00 1013.35 1013.69 1014.00 1014.29
1009.36 1009.79 1010.13 1010.38 1010.56 1010.69 1010.80 1010.89 1010.98 1011.06 1011.13 1011.16 1011.13 1011.03 1010.87 1010.65 1010.40 1010.14 1009.91 1009.73 1009.62 1009.59 1009.63 1009.73 1009.86 1010.02 1010.17 1010.32 1010.46 1010.60 1010.76 1010.94 1011.15 1011.41 1011.70 1012.02 1012.35 1012.69 1013.02 1013.34 1013.63 1013.90 1014.15
1008.91 1009.31 1009.64 1009.92 1010.13 1010.31 1010.46 1010.60 1010.72 1010.83 1010.91 1010.95 1010.93 1010.86 1010.73 1010.55 1010.35 1010.16 1009.99 1009.87 1009.81 1009.81 1009.87 1009.98 1010.11 1010.26 1010.40 1010.53 1010.66 1010.79 1010.93 1011.10 1011.30 1011.53 1011.80 1012.09 1012.39 1012.69 1012.97 1013.24 1013.49 1013.73 1013.95
1008.47 1008.84 1009.18 1009.48 1009.75 1009.98 1010.18 1010.36 1010.52 1010.64 1010.73 1010.77 1010.76 1010.70 1010.59 1010.46 1010.32 1010.18 1010.07 1010.01 1009.99 1010.02 1010.09 1010.19 1010.30 1010.42 1010.53 1010.64 1010.75 1010.87 1011.00 1011.16 1011.35 1011.57 1011.82 1012.08 1012.35 1012.61 1012.87 1013.10 1013.32 1013.53 1013.74
1008.07 1008.42 1008.77 1009.11 1009.43 1009.71 1009.97 1010.20 1010.38 1010.51 1010.60 1010.64 1010.63 1010.58 1010.50 1010.41 1010.32 1010.24 1010.19 1010.16 1010.18 1010.22 1010.28 1010.35 1010.43 1010.51 1010.58 1010.66 1010.75 1010.86 1010.99 1011.15 1011.34 1011.55 1011.79 1012.04 1012.29 1012.53 1012.75 1012.96 1013.16 1013.35 1013.54
1007.73 1008.06 1008.42 1008.79 1009.16 1009.51 1009.81 1010.08 1010.28 1010.43 1010.52 1010.56 1010.55 1010.52 1010.47 1010.41 1010.37 1010.34 1010.33 1010.34 1010.36 1010.40 1010.43 1010.47 1010.50 1010.53 1010.57 1010.62 1010.69 1010.79 1010.93 1011.10 1011.31 1011.53 1011.77 1012.01 1012.25 1012.47 1012.67 1012.85 1013.03 1013.21 1013.40
1007.47 1007.77 1008.13 1008.53 1008.94 1009.33 1009.68 1009.97 1010.20 1010.35 1010.45 1010.49 1010.50 1010.48 1010.46 1010.45 1010.44 1010.46 1010.48 1010.51 1010.54 1010.56 1010.56 1010.55 1010.54 1010.52 1010.52 1010.55 1010.61 1010.72 1010.87 1011.07 1011.29 1011.54 1011.79 1012.03 1012.25 1012.45 1012.63 1012.79 1012.95 1013.11 1013.29
1007.30 1007.56 1007.91 1008.32 1008.74 1009.15 1009.52 1009.83 1010.07 1010.23 1010.33 1010.38 1010.41 1010.42 1010.43 1010.46 1010.50 1010.55 1010.61 1010.65 1010.68 1010.68 1010.65 1010.60 1010.54 1010.48 1010.45 1010.47 1010.53 1010.65 1010.83 1011.06 1011.32 1011.59 1011.85 1012.09 1012.30 1012.48 1012.63 1012.76 1012.89 1013.03 1013.20
1007.22 1007.44 1007.76 1008.14 1008.55 1008.96 1009.33 1009.63 1009.87 1010.03 1010.13 1010.19 1010.23 1010.27 1010.32 1010.40 1010.48 1010.57 1010.66 1010.72 1010.74 1010.73 1010.67 1010.59 1010.50 1010.42 1010.37 1010.38 1010.46 1010.60 1010.81 1011.07 1011.36 1011.64 1011.91 1012.15 1012.34 1012.49 1012.61 1012.71 1012.81 1012.93 1013.07
1007.26 1007.42 1007.68 1008.02 1008.39 1008.76 1009.09 1009.37 1009.57 1009.72 1009.81 1009.88 1009.93 1010.00 1010.09 1010.21 1010.34 1010.47 1010.58 1010.66 1010.69 1010.67 1010.61 1010.51 1010.40 1010.32 1010.27 1010.28 1010.38 1010.55 1010.78 1011.06 1011.36 1011.66 1011.92 1012.14 1012.31 1012.43 1012.51 1012.58 1012.64 1012.73 1012.86
1007.43 1007.51 1007.71 1007.97 1008.27 1008.57 1008.84 1009.05 1009.21 1009.32 1009.39 1009.45 1009.52 1009.61 1009.73 1009.88 1010.04 1010.21 1010.35 1010.46 1010.51 1010.50 1010.43 1010.34 1010.23 1010.15 1010.11 1010.14 1010.25 1010.43 1010.68 1010.97 1011.27 1011.56 1011.80 1012.00 1012.13 1012.22 1012.27 1012.30 1012.34 1012.41 1012.52
Thickness
5723 5723 5723 5722 5720 5718 5716 5715 5712 5712 5712 5710 5708 5707 5705 5706 5705 5705 5704 5703 5702 5702 5701 5699 5698 5697 5696 5695 5694 5692 5690 5688 5688 5686 5685 5685 5687 5687 5688 5688 5688 5688 5687
5718 5719 5720 5719 5716 5714 5712 5711 5709 5709 5709 5708 5707 5705 5704 5702 5702 5702 5701 5700 5700 5699 5698 5696 5695 5694 5692 5691 5690 5689 5686 5684 5684 5682 5679 5676 5677 5681 5683 5682 5682 5682 5682
5717 5716 5716 5715 5713 5711 5709 5709 5707 5706 5706 5706 5704 5702 5700 5699 5697 5697 5697 5697 5696 5696 5695 5693 5692 5691 5690 5687 5686 5685 5683 5680 5679 5679 5677 5672 5670 5672 5675 5676 5677 5677 5677
5716 5714 5714 5712 5711 5710 5708 5707 5705 5703 5702 5702 5700 5698 5696 5694 5694 5693 5693 5693 5693 5692 5691 5690 5689 5688 5686 5684 5683 5682 5680 5678 5675 5674 5673 5672 5671 5668 5666 5669 5670 5671 5672
5716 5714 5713 5712 5710 5708 5706 5704 5702 5700 5700 5699 5698 5696 5694 5693 5692 5691 5690 5689 5689 5689 5689 5687 5686 5684 5683 5681 5680 5679 5677 5675 5673 5670 5668 5667 5666 5665 5663 5661 5662 5664 5666
5715 5713 5712 5709 5707 5705 5703 5700 5698 5696 5697 5696 5695 5694 5692 5691 5689 5687 5686 5685 5685 5685 5685 5684 5683 5681 5680 5678 5676 5675 5673 5671 5669 5668 5666 5664 5663 5661 5659 5657 5656 5657 5660
5712 5710 5707 5705 5704 5702 5700 5698 5696 5693 5693 5693 5693 5693 5692 5690 5687 5686 5684 5682 5681 5681 5681 5681 5679 5677 5676 5674 5672 5670 5669 5667 5665 5664 5662 5662 5660 5659 5657 5655 5652 5651 5653
5711 5709 5707 5705 5703 5701 5698 5696 5694 5692 5692 5691 5691 5690 5689 5687 5685 5684 5682 5680 5679 5678 5678 5677 5676 5674 5672 5671 5668 5666 5665 5663 5661 5660 5659 5657 5656 5656 5655 5653 5650 5648 5648
5710 5708 5706 5704 5702 5699 5697 5695 5692 5691 5690 5689 5688 5688 5686 5684 5683 5681 5680 5678 5677 5676 5675 5674 5672 5671 5669 5667 5665 5662 5661 5659 5657 5656 5655 5654 5653 5652 5652 5650 5649 5647 5644
5707 5706 5704 5702 5700 5699 5696 5693 5691 5689 5688 5687 5686 5685 5683 5681 5680 5679 5677 5676 5674 5673 5671 5670 5668 5667 5665 5664 5661 5659 5657 5655 5654 5652 5651 5650 5649 5649 5648 5647 5646 5645 5643
5705 5705 5703 5701 5699 5696 5693 5690 5688 5686 5685 5684 5683 5681 5679 5678 5677 5676 5675 5673 5672 5670 5668 5666 5665 5663 5661 5659 5657 5655 5654 5652 5651 5650 5648 5647 5646 5645 5645 5644 5643 5641 5640
5705 5703 5702 5699 5696 5693 5691 5688 5686 5684 5682 5681 5679 5677 5676 5675 5673 5672 5671 5670 5668 5667 5665 5663 5661 5660 5658 5656 5654 5652 5650 5649 5648 5647 5646 5645 5644 5642 5642 5641 5639 5638 5637
5702 5700 5699 5696 5694 5691 5689 5687 5685 5683 5680 5678 5676 5675 5673 5672 5670 5669 5668 5666 5665 5663 5662 5660 5658 5657 5655 5653 5651 5649 5647 5646 5645 5644 5643 5642 5641 5640 5639 5638 5637 5635 5635
5700 5698 5697 5695 5694 5691 5689 5686 5683 5681 5679 5677 5675 5673 5672 5670 5668 5666 5664 5663 5661 5660 5659 5657 5656 5655 5653 5651 5649 5646 5645 5644 5643 5642 5641 5640 5639 5638 5636 5635 5633 5632 5631
5698 5697 5696 5694 5692 5690 5688 5686 5683 5681 5679 5676 5673 5671 5670 5667 5665 5663 5661 5659 5658 5657 5656 5654 5653 5652 5651 5649 5647 5645 5643 5642 5640 5640 5639 5639 5638 5636 5635 5634 5632 5630 5628
5698 5697 5696 5693 5691 5690 5687 5684 5682 5680 5677 5674 5672 5670 5667 5665 5663 5661 5659 5656 5655 5653 5652 5651 5651 5650 5649 5648 5646 5644 5642 5640 5639 5638 5638 5637 5636 5635 5634 5632 5631 5629 5627
5697 5696 5694 5693 5692 5690 5687 5684 5681 5679 5675 5672 5670 5668 5666 5663 5661 5659 5656 5654 5652 5651 5649 5649 5649 5648 5647 5646 5644 5643 5641 5639 5638 5637 5636 5636 5635 5633 5631 5630 5629 5627 5627
5696 5695 5694 5692 5691 5689 5686 5683 5680 5677 5673 5670 5668 5666 5663 5661 5659 5657 5655 5652 5651 5649 5648 5648 5647 5646 5646 5645 5644 5642 5640 5639 5637 5636 5635 5634 5633 5631 5629 5628 5627 5626 5625
5695 5694 5692 5691 5689 5686 5684 5681 5677 5674 5671 5669 5666 5664 5662 5660 5657 5655 5654 5652 5650 5649 5648 5648 5647 5646 5646 5645 5643 5641 5638 5637 5635 5635 5633 5632 5631 5629 5627 5625 5624 5623 5623
5692 5691 5689 5687 5684 5683 5681 5677 5674 5671 5669 5668 5666 5664 5661 5658 5657 5655 5653 5651 5650 5649 5648 5647 5646 5645 5645 5644 5642 5639 5637 5635 5634 5633 5632 5631 5629 5627 5625 5623 5622 5620 5620
5687 5686 5684 5682 5680 5679 5677 5674 5671 5669 5669 5667 5665 5662 5660 5657 5655 5653 5652 5651 5649 5647 5646 5646 5645 5645 5644 5642 5641 5638 5636 5635 5634 5632 5631 5630 5628 5626 5624 5622 5621 5619 5617
5681 5680 5678 5676 5675 5674 5672 5670 5668 5668 5666 5664 5662 5659 5657 5655 5654 5651 5650 5648 5647 5645 5644 5643 5643 5643 5642 5641 5640 5638 5636 5635 5633 5632 5631 5629 5626 5624 5623 5621 5620 5617 5614
5676 5675 5673 5671 5670 5669 5668 5666 5666 5665 5663 5660 5657 5656 5654 5652 5651 5649 5647 5646 5644 5643 5642 5641 5641 5641 5641 5640 5639 5637 5636 5634 5632 5631 5629 5627 5624 5622 5621 5620 5618 5615 5613
5671 5670 5668 5666 5665 5665 5665 5664 5664 5662 5659 5656 5654 5652 5650 5649 5648 5646 5645 5643 5642 5641 5641 5640 5639 5639 5639 5639 5638 5636 5634 5632 5629 5628 5626 5624 5622 5621 5619 5618 5616 5614 5612
5666 5665 5663 5661 5661 5662 5661 5661 5660 5658 5655 5653 5651 5649 5647 5646 5644 5643 5642 5642 5642 5641 5640 5639 5639 5638 5638 5639 5637 5635 5633 5631 5628 5625 5623 5622 5620 5619 5617 5616 5614 5612 5610
5660 5659 5658 5657 5657 5657 5657 5657 5656 5654 5652 5649 5647 5645 5644 5642 5641 5640 5639 5640 5640 5640 5640 5639 5638 5638 5637 5637 5635 5633 5631 5628 5625 5622 5621 5619 5618 5616 5615 5614 5613 5611 5609